CSLBA LPCS-LPFR

Flight info

Callsign CSLBA
Flight time 0h 34m
Altitude 19000
Route DUZOP DCT MARIM
Aircraft B350/L-SBDFGRYZ/LB1

Departure

Time 2026-04-26 21:26
Airport Cascais Airport (LPCS)

Arrival

Time 2026-04-26 22:00
Airport Faro - Gago Coutinho International Airport (LPFR)
Time Latitude Longitude Altitude Speed Heading
2026-04-26 21:03 38.72170 -9.35783 322 ft 0 kts
2026-04-26 21:20 38.72177 -9.35781 322 ft 5 kts 17°
2026-04-26 21:21 38.72217 -9.35765 322 ft 6 kts 17°
2026-04-26 21:21 38.72260 -9.35748 320 ft 4 kts 17°
2026-04-26 21:21 38.72291 -9.35735 322 ft 5 kts 31°
2026-04-26 21:21 38.72312 -9.35671 321 ft 10 kts 75°
2026-04-26 21:22 38.72332 -9.35589 322 ft 9 kts 73°
2026-04-26 21:22 38.72349 -9.35517 322 ft 8 kts 72°
2026-04-26 21:22 38.72343 -9.35460 323 ft 10 kts 154°
2026-04-26 21:23 38.72116 -9.35376 322 ft 20 kts 164°
2026-04-26 21:23 38.71986 -9.35330 323 ft 19 kts 163°
2026-04-26 21:23 38.71864 -9.35291 322 ft 13 kts 181°
2026-04-26 21:23 38.71844 -9.35277 322 ft 3 kts 345°
2026-04-26 21:24 38.71847 -9.35278 322 ft 0 kts 344°
2026-04-26 21:25 38.71877 -9.35289 322 ft 30 kts 344°
2026-04-26 21:26 38.72352 -9.35462 323 ft 104 kts 343°
2026-04-26 21:26 38.73175 -9.35754 587 ft 135 kts 347°
2026-04-26 21:26 38.73875 -9.36648 1028 ft 167 kts 289°
2026-04-26 21:26 38.73859 -9.38192 1539 ft 182 kts 268°
2026-04-26 21:27 38.73647 -9.39827 2140 ft 188 kts 263°
2026-04-26 21:27 38.73356 -9.41478 2782 ft 193 kts 260°
2026-04-26 21:27 38.72994 -9.43153 3438 ft 197 kts 257°
2026-04-26 21:27 38.72609 -9.44857 4042 ft 199 kts 255°
2026-04-26 21:28 38.72210 -9.46552 4709 ft 199 kts 252°
2026-04-26 21:28 38.71544 -9.48097 5372 ft 199 kts 226°
2026-04-26 21:28 38.70457 -9.49180 5987 ft 196 kts 205°
2026-04-26 21:28 38.69172 -9.49432 6554 ft 186 kts 159°
2026-04-26 21:29 38.68207 -9.48454 7086 ft 178 kts 120°
2026-04-26 21:29 38.67453 -9.47207 7595 ft 182 kts 134°
2026-04-26 21:29 38.66470 -9.46159 8140 ft 185 kts 137°
2026-04-26 21:29 38.65472 -9.45109 8682 ft 186 kts 136°
2026-04-26 21:30 38.64496 -9.44013 9250 ft 187 kts 134°
2026-04-26 21:30 38.63530 -9.42888 9820 ft 189 kts 133°
2026-04-26 21:30 38.62563 -9.41742 10331 ft 191 kts 133°
2026-04-26 21:30 38.61600 -9.40590 10820 ft 193 kts 133°
2026-04-26 21:31 38.60613 -9.39404 11317 ft 196 kts 134°
2026-04-26 21:31 38.59608 -9.38195 11812 ft 199 kts 133°
2026-04-26 21:31 38.58592 -9.36973 12310 ft 202 kts 134°
2026-04-26 21:31 38.57575 -9.35751 12823 ft 204 kts 134°
2026-04-26 21:32 38.56532 -9.34499 13322 ft 207 kts 134°
2026-04-26 21:32 38.55472 -9.33226 13824 ft 210 kts 135°
2026-04-26 21:32 38.54396 -9.31934 14297 ft 212 kts 135°
2026-04-26 21:32 38.53317 -9.30641 14777 ft 213 kts 135°
2026-04-26 21:33 38.52231 -9.29339 15289 ft 214 kts 135°
2026-04-26 21:33 38.51160 -9.28051 15778 ft 215 kts 135°
2026-04-26 21:33 38.50066 -9.26740 16271 ft 216 kts 136°
2026-04-26 21:33 38.48964 -9.25422 16754 ft 217 kts 136°
2026-04-26 21:34 38.47856 -9.24095 17234 ft 219 kts 136°
2026-04-26 21:34 38.46735 -9.22756 17711 ft 221 kts 136°
2026-04-26 21:34 38.45608 -9.21409 18171 ft 223 kts 136°
2026-04-26 21:34 38.44488 -9.20070 18562 ft 225 kts 136°
2026-04-26 21:35 38.43320 -9.18676 18822 ft 234 kts 137°
2026-04-26 21:35 38.42099 -9.17219 18975 ft 246 kts 137°
2026-04-26 21:35 38.40811 -9.15686 19010 ft 259 kts 137°
2026-04-26 21:35 38.39459 -9.14083 19021 ft 271 kts 137°
2026-04-26 21:36 38.38060 -9.12420 19025 ft 279 kts 137°
2026-04-26 21:36 38.36624 -9.10712 19025 ft 285 kts 137°
2026-04-26 21:36 38.35159 -9.08968 19023 ft 290 kts 137°
2026-04-26 21:36 38.33694 -9.07222 19023 ft 293 kts 137°
2026-04-26 21:37 38.32196 -9.05438 19020 ft 296 kts 137°
2026-04-26 21:37 38.30685 -9.03641 19023 ft 298 kts 137°
2026-04-26 21:37 38.29167 -9.01834 19021 ft 299 kts 137°
2026-04-26 21:37 38.27643 -9.00022 19023 ft 300 kts 137°
2026-04-26 21:38 38.26113 -8.98206 19020 ft 301 kts 137°
2026-04-26 21:38 38.24578 -8.96386 19020 ft 302 kts 137°
2026-04-26 21:38 38.23044 -8.94566 19019 ft 302 kts 137°
2026-04-26 21:38 38.21500 -8.92735 19025 ft 303 kts 137°
2026-04-26 21:39 38.19958 -8.90908 19023 ft 303 kts 137°
2026-04-26 21:39 38.18416 -8.89084 19024 ft 303 kts 137°
2026-04-26 21:39 38.16890 -8.87277 19022 ft 303 kts 137°
2026-04-26 21:39 38.15346 -8.85453 19025 ft 303 kts 137°
2026-04-26 21:40 38.13801 -8.83625 19021 ft 303 kts 137°
2026-04-26 21:40 38.12257 -8.81797 19025 ft 303 kts 137°
2026-04-26 21:40 38.10708 -8.79967 19023 ft 303 kts 137°
2026-04-26 21:40 38.09161 -8.78144 19029 ft 304 kts 137°
2026-04-26 21:41 38.07609 -8.76321 19026 ft 304 kts 137°
2026-04-26 21:41 38.06057 -8.74496 19022 ft 304 kts 137°
2026-04-26 21:41 38.04503 -8.72667 19022 ft 304 kts 137°
2026-04-26 21:41 38.02952 -8.70840 19021 ft 304 kts 137°
2026-04-26 21:42 38.01399 -8.69013 19019 ft 304 kts 137°
2026-04-26 21:42 37.99869 -8.67215 19021 ft 304 kts 137°
2026-04-26 21:42 37.98313 -8.65386 19021 ft 304 kts 137°
2026-04-26 21:42 37.96760 -8.63565 19025 ft 305 kts 137°
2026-04-26 21:43 37.95200 -8.61739 19026 ft 305 kts 137°
2026-04-26 21:43 37.93646 -8.59917 19023 ft 305 kts 137°
2026-04-26 21:43 37.92088 -8.58091 19022 ft 304 kts 137°
2026-04-26 21:43 37.90528 -8.56265 19028 ft 304 kts 137°
2026-04-26 21:44 37.88974 -8.54446 19026 ft 304 kts 137°
2026-04-26 21:44 37.87438 -8.52650 19027 ft 304 kts 137°
2026-04-26 21:44 37.85879 -8.50828 19031 ft 304 kts 137°
2026-04-26 21:44 37.84324 -8.49012 19032 ft 304 kts 137°
2026-04-26 21:45 37.82770 -8.47198 19028 ft 304 kts 137°
2026-04-26 21:45 37.81216 -8.45386 19027 ft 304 kts 137°
2026-04-26 21:45 37.79660 -8.43572 19029 ft 303 kts 137°
2026-04-26 21:45 37.78110 -8.41765 19028 ft 303 kts 137°
2026-04-26 21:46 37.76560 -8.39959 19027 ft 303 kts 137°
2026-04-26 21:46 37.75026 -8.38174 19026 ft 303 kts 137°
2026-04-26 21:46 37.73452 -8.36344 19034 ft 303 kts 137°
2026-04-26 21:46 37.71917 -8.34562 19028 ft 303 kts 137°
2026-04-26 21:47 37.70364 -8.32756 19034 ft 303 kts 137°
2026-04-26 21:47 37.68812 -8.30954 19029 ft 303 kts 137°
2026-04-26 21:47 37.67255 -8.29147 19026 ft 303 kts 137°
2026-04-26 21:47 37.65702 -8.27347 19029 ft 303 kts 137°
2026-04-26 21:48 37.64143 -8.25543 19026 ft 303 kts 137°
2026-04-26 21:48 37.62590 -8.23745 19027 ft 303 kts 137°
2026-04-26 21:48 37.61035 -8.21944 19028 ft 303 kts 137°
2026-04-26 21:48 37.59476 -8.20141 19032 ft 303 kts 137°
2026-04-26 21:49 37.57938 -8.18364 19031 ft 303 kts 137°
2026-04-26 21:49 37.56381 -8.16563 19031 ft 303 kts 137°
2026-04-26 21:49 37.54823 -8.14764 19034 ft 303 kts 137°
2026-04-26 21:49 37.53263 -8.12965 18893 ft 308 kts 137°
2026-04-26 21:50 37.51646 -8.11121 18510 ft 319 kts 138°
2026-04-26 21:50 37.50538 -8.09876 18216 ft 325 kts 138°
2026-04-26 21:50 37.48266 -8.07292 17581 ft 330 kts 137°
2026-04-26 21:50 37.46579 -8.05331 17117 ft 329 kts 137°
2026-04-26 21:51 37.44905 -8.03381 16650 ft 327 kts 137°
2026-04-26 21:51 37.43241 -8.01448 16205 ft 325 kts 137°
2026-04-26 21:51 37.41594 -7.99548 15756 ft 314 kts 137°
2026-04-26 21:51 37.40030 -7.97744 15327 ft 304 kts 137°
2026-04-26 21:52 37.38498 -7.95954 14896 ft 298 kts 137°
2026-04-26 21:52 37.36990 -7.94203 14469 ft 292 kts 137°
2026-04-26 21:52 37.35495 -7.92480 14048 ft 289 kts 138°
2026-04-26 21:52 37.34035 -7.90813 13613 ft 285 kts 138°
2026-04-26 21:53 37.32566 -7.89148 13140 ft 282 kts 137°
2026-04-26 21:53 37.31119 -7.87503 12681 ft 279 kts 137°
2026-04-26 21:53 37.29701 -7.85892 12222 ft 277 kts 137°
2026-04-26 21:53 37.28282 -7.84277 11783 ft 274 kts 136°
2026-04-26 21:54 37.26878 -7.82680 11339 ft 271 kts 136°
2026-04-26 21:54 37.25495 -7.81074 10902 ft 268 kts 132°
2026-04-26 21:54 37.24118 -7.79528 10483 ft 268 kts 150°
2026-04-26 21:54 37.22299 -7.78980 10056 ft 271 kts 170°
2026-04-26 21:55 37.20421 -7.78798 9593 ft 271 kts 176°
2026-04-26 21:55 37.18559 -7.79074 9128 ft 273 kts 186°
2026-04-26 21:55 37.16683 -7.79452 8676 ft 272 kts 185°
2026-04-26 21:55 37.14827 -7.79805 8181 ft 264 kts 184°
2026-04-26 21:56 37.13043 -7.80141 7679 ft 254 kts 184°
2026-04-26 21:56 37.11311 -7.80470 7201 ft 248 kts 184°
2026-04-26 21:56 37.09644 -7.80733 6739 ft 242 kts 181°
2026-04-26 21:56 37.07984 -7.80940 6254 ft 237 kts 180°
2026-04-26 21:57 37.06356 -7.81127 5749 ft 231 kts 179°
2026-04-26 21:57 37.04761 -7.81300 5188 ft 230 kts 180°
2026-04-26 21:57 37.03163 -7.81466 4585 ft 231 kts 180°
2026-04-26 21:57 37.01595 -7.81886 3936 ft 236 kts 207°
2026-04-26 21:58 37.00453 -7.83343 3332 ft 237 kts 234°
2026-04-26 21:58 36.99750 -7.85171 2695 ft 233 kts 261°
2026-04-26 21:58 36.99828 -7.87171 2109 ft 229 kts 281°
2026-04-26 21:58 37.00338 -7.88956 1775 ft 212 kts 301°
2026-04-26 21:59 37.00760 -7.90583 1631 ft 183 kts 270°
2026-04-26 21:59 37.00791 -7.92031 1241 ft 157 kts 277°
2026-04-26 21:59 37.00975 -7.93320 821 ft 138 kts 280°
2026-04-26 21:59 37.01133 -7.94420 444 ft 120 kts 278°
2026-04-26 22:00 37.01271 -7.95396 167 ft 110 kts 277°
2026-04-26 22:00 37.01404 -7.96297 20 ft 96 kts 277°
2026-04-26 22:00 37.01498 -7.96974 17 ft 58 kts 279°
2026-04-26 22:00 37.01546 -7.97334 16 ft 31 kts 280°
2026-04-26 22:01 37.01582 -7.97537 16 ft 25 kts 279°
2026-04-26 22:01 37.01602 -7.97742 16 ft 23 kts 282°
2026-04-26 22:01 37.01674 -7.97854 17 ft 17 kts 11°
2026-04-26 22:01 37.01749 -7.97742 17 ft 18 kts 67°
2026-04-26 22:02 37.01770 -7.97598 16 ft 14 kts 97°
2026-04-26 22:02 37.01758 -7.97520 16 ft 14 kts 101°
2026-04-26 22:02 37.01818 -7.97394 16 ft 14 kts 40°
2026-04-26 22:02 37.01846 -7.97311 16 ft 10 kts 105°
2026-04-26 22:03 37.01800 -7.97279 16 ft 7 kts 189°
2026-04-26 22:03 37.01785 -7.97264 16 ft 3 kts
2026-04-26 22:03 37.01792 -7.97267 16 ft 0 kts 338°